Tracking 20942 objects as of 10-Jul-2020
HD Live streaming from Space Station
objects crossing your sky now

COSMOS 1058

Track COSMOS 1058 now!
10-day predictions
COSMOS 1058 is classified as:


NORAD ID: 11135
Int'l Code: 1978-109H
Perigee: 1,487.2 km
Apogee: 1,544.8 km
Inclination: 74.0 °
Period: 116.2 minutes
Semi major axis: 7886 km
RCS: 0.7109 m2 (medium)
Launch date: December 5, 1978
Source: Commonwealth of Independent States (former USSR) (CIS)
Launch site: PLESETSK MISSILE AND SPACE COMPLEX (PKMTR)
aabbcc
Your satellite tracking list
Your tracking list is empty




NASA's NSSDC Master Catalog

Two Line Element Set (TLE):
1 11135U 78109H   20191.88516361 -.00000014 +00000-0 +13775-4 0  9990
2 11135 074.0181 348.6996 0036555 195.7339 317.0723 12.39468161882057
Source of the keplerian elements: AFSPC